Location: Audruicq
(50.8780°N, 2.0797°E)
Time: 12:01:01
(UTC+00:00)

Cosmos 2278 - Pass Details

Date: 15 May 2026
Orbit: 837 x 852 km, 71.1° (Epoch: 5 June)

Event Time Altitude Azimuth Distance (km) Brightness Sun altitude
Rises 20:59:35 0° 329° (NNW) 3,432 8.9 -10.9°
Reaches altitude 10° 21:02:03 10° 328° (NNW) 2,492 7.7 -11.2°
Maximum altitude 21:07:46 77° 244° (WSW) 881 3.8 -11.7°
Enters shadow 21:12:32 15° 160° (SSE) 2,130 5.2 -12.2°
